[keps] orb10357.2l.amsat
Ray Hoad
ray.hoad at mypbmail.com
Thu Dec 23 17:49:05 PST 2010
SB KEPS @ AMSAT $ORB10357.N
2Line Orbital Elements 10357.AMSAT
HR AMSAT ORBITAL ELEMENTS FOR AMATEUR SATELLITES IN NASA FORMAT
FROM WA5QGD FORT WORTH,TX December 23, 2010
Send Subscribe/unsubscribe to KEPS at http://www.amsat.org/mailman/listinfo/keps
BID: ORB10357.N
DECODE 2-LINE ELSETS WITH THE FOLLOWING KEY:
1 AAAAAU 00 0 0 BBBBB.BBBBBBBB .CCCCCCCC 00000-0 00000-0 0 DDDZ
2 AAAAA EEE.EEEE FFF.FFFF GGGGGGG HHH.HHHH III.IIII JJ.JJJJJJJJKKKKKZ
KEY: A-CATALOGNUM B-EPOCHTIME C-DECAY D-ELSETNUM E-INCLINATION F-RAAN
G-ECCENTRICITY H-ARGPERIGEE I-MNANOM J-MNMOTION K-ORBITNUM Z-CHECKSUM
TO ALL RADIO AMATEURS BT
AO-07
1 07530U 74089B 10356.54525156 -.00000027 00000-0 10000-3 0 09603
2 07530 101.3958 005.0559 0011776 265.6662 094.3065 12.53580593652059
FO-29
1 24278U 96046B 10356.90320684 -.00000046 00000-0 -98372-5 0 04682
2 24278 098.5195 160.0194 0350904 354.4540 005.2760 13.52955473708626
SO-33
1 25509U 98061B 10357.59989057 .00000372 00000-0 62017-4 0 8657
2 25509 031.4296 157.3649 0353519 146.1701 216.1973 14.28352539635150
RS-22
1 27939U 03042A 10357.65229028 .00000131 00000-0 33849-4 0 8365
2 27939 097.8648 214.8102 0013445 176.2362 183.8937 14.63492137386664
VO-52
1 28650U 05017B 10357.34208363 -.00000024 00000-0 34527-5 0 6764
2 28650 097.6686 043.1350 0027588 020.0921 340.1363 14.81876378304702
SO-67
1 35870U 09049F 10357.88824074 .00000832 00000-0 40241-4 0 4052
2 35870 097.3076 041.7486 0003920 130.5069 221.4847 15.21253643 70282
HO-68
1 36122U 09072B 10357.88831141 -.00000045 00000-0 00000 0 0 9609
2 36122 100.4446 056.1753 0007187 265.7492 094.2802 13.16283342 49179
UO-11
1 14781U 84021B 10357.41470350 .00000148 00000-0 26653-4 0 4259
2 14781 098.0319 049.4546 0008897 354.4697 005.6399 14.79872759439798
AO-16
1 20439U 90005D 10356.58194492 .00000023 00000-0 24085-4 0 00763
2 20439 098.3606 307.3337 0010705 332.3846 027.6762 14.31888475092347
LO-19
1 20442U 90005G 10356.68930594 .00000088 00000-0 48078-4 0 9835
2 20442 098.3234 312.4814 0011407 324.9703 035.0738 14.32117348 92536
AO-27
1 22825U 93061C 10356.88369889 .00000009 00000-0 20510-4 0 07081
2 22825 098.5098 300.1724 0009253 075.9882 284.2359 14.29320516899007
IO-26
1 22826U 93061D 10356.77524281 .00000022 00000-0 25165-4 0 04442
2 22826 098.5049 300.6013 0009839 070.6714 289.5532 14.29579291899104
GO-32
1 25397U 98043D 10357.43253406 -.00000098 00000-0 -25586-4 0 3637
2 25397 098.3170 354.4956 0002237 079.2660 280.8785 14.23192362646968
NO-44
1 26931U 01043C 10356.81595276 .00000198 00000-0 10957-3 0 6379
2 26931 067.0530 077.9736 0006368 276.7349 083.3057 14.29627188481719
SO-50
1 27607U 02058C 10356.86301078 .00000081 00000-0 34553-4 0 3486
2 27607 064.5560 143.3945 0052060 004.6952 355.4634 14.71622131430148
CO-55
1 27844U 03031E 10357.04792253 .00000114 00000-0 73081-4 0 57
2 27844 098.7079 003.3071 0009953 351.3168 008.7825 14.20756568387905
CO-57
1 27848U 03031J 10356.54187460 .00000098 00000-0 66017-4 0 09559
2 27848 098.7136 001.9434 0010027 357.0281 003.0836 14.20543489387785
AO-51
1 28375U 04025K 10357.40338828 .00000041 00000-0 25188-4 0 8541
2 28375 098.0777 340.2963 0082882 243.5098 115.7578 14.40716523340757
CP3
1 31129U 07012N 10357.54427460 .00000071 00000-0 26825-4 0 7548
2 31129 097.9172 026.7668 0102387 006.9783 353.2790 14.52353165195348
CO-65
1 32785U 08021C 10357.65439885 -.00000023 00000-0 38182-5 0 8699
2 32785 097.8736 059.7240 0015527 032.0086 328.2062 14.81791663143549
KKS-1
1 33493U 09002B 10357.82082602 .00000647 00000-0 89895-4 0 1540
2 33493 098.1040 119.1984 0018780 246.5541 113.3699 14.81253329103554
SOHLA-1
1 33496U 09002E 10357.86074084 -.00000031 00000-0 31023-5 0 2889
2 33496 098.0697 104.6281 0005909 329.0611 031.0238 14.69542847102733
TISAT-1
1 36799U 10035E 10357.74025444 .00000445 00000-0 65562-4 0 4287
2 36799 098.1273 059.1012 0016428 121.2144 239.0693 14.80270398 24358
STUDSAT
1 36801U 10035G 10356.78076417 .00001244 00000-0 17176-3 0 1080
2 36801 098.1279 058.0032 0014734 113.3024 246.9737 14.79896375 24202
RAX
1 37223U 0 10353.90352991 .00000438 00000-0 69581-4 0 00323
2 37223 071.9733 074.4043 0022783 260.5546 099.3039 14.77200390004416
OOREOS
1 37224U 10062C 10352.42005071 .00000339 00000-0 55993-4 0 00336
2 37224 071.9730 077.7123 0021502 260.6953 099.1778 14.76865884004186
FASTSAT
1 37225U 10062D 10339.55430316 .00000041 00000-0 13962-4 0 00217
2 37225 071.9720 106.1057 0019965 280.4841 079.4053 14.76483442002287
FAST1-2
1 37227U 0 10356.49475391 .00000111 00000-0 23946-4 0 00349
2 37227 071.9731 068.7786 0019196 250.4101 109.4988 14.76378899004782
NOAA-10
1 16969U 86073A 10357.13160967 -.00000058 00000-0 -58907-5 0 3278
2 16969 098.6381 024.1480 0012832 023.0209 337.1539 14.27438271262537
NOAA-11
1 19531U 88089A 10357.33084668 -.00000236 00000-0 -99501-4 0 3340
2 19531 098.7628 083.0763 0010919 334.1991 025.8630 14.14898448147881
NOAA-12
1 21263U 91032A 10357.28329721 .00000194 00000-0 10066-3 0 8224
2 21263 098.7584 010.3666 0012189 342.1571 017.9184 14.25675789 19344
MET-3/5
1 21655U 91056A 10356.88665390 .00000051 00000-0 10000-3 0 09967
2 21655 082.5541 175.3196 0012516 235.4611 124.5295 13.17024344930510
MET-2/21
1 22782U 93055A 10356.81255917 .00000004 00000-0 -95161-5 0 9718
2 22782 082.5483 102.8171 0021206 231.2270 128.6999 13.83652956874169
OKEAN-4
1 23317U 94066A 10356.65462377 .00000192 00000-0 20705-4 0 04283
2 23317 082.5382 177.9412 0021837 345.3121 014.7432 14.82912217874385
NOAA-14
1 23455U 94089A 10357.45464575 -.00000092 00000-0 -25005-4 0 3156
2 23455 098.8665 076.7549 0010193 061.1786 299.0412 14.13801891824247
NOAA-15
1 25338U 98030A 10357.40336895 .00000092 00000-0 58095-4 0 6422
2 25338 098.6376 341.1236 0009795 242.7805 117.2382 14.24874212655690
RESURS
1 25394U 98043A 10356.55976060 .00000021 00000-0 26863-4 0 06832
2 25394 098.2988 004.3246 0002248 046.8495 313.2868 14.24219665647165
FENGYUN1
1 25730U 99025A 10356.86354361 .00000891 00000-0 54338-3 0 02169
2 25730 098.8031 317.0866 0021173 086.3553 273.9978 14.08487535598241
OKEAN-0
1 25860U 99039A 10356.70050888 .00000139 00000-0 28734-4 0 01849
2 25860 097.8593 323.2723 0001123 111.5564 248.5764 14.73695310614664
NOAA-16
1 26536U 00055A 10357.41779547 .00000085 00000-0 71259-4 0 1210
2 26536 099.1588 019.2399 0010818 162.7932 197.3631 14.12590216528540
NOAA-17
1 27453U 02032A 10357.40446163 .00000009 00000-0 22109-4 0 1137
2 27453 098.4058 039.9741 0010916 306.9141 053.1036 14.24220584441639
NOAA-18
1 28654U 05018A 10357.43856697 -.00000183 00000-0 -75942-4 0 6007
2 28654 098.9755 303.3688 0013558 238.7355 121.2502 14.11418332288139
NOAA-19
1 33591U 09005A 10357.39711285 .00000238 00000-0 15585-3 0 7928
2 33591 098.8106 295.6734 0014873 112.4459 247.8295 14.11114056 96590
HUBBLE
1 20580U 90037B 10355.61426390 .00000649 00000-0 36697-4 0 6901
2 20580 028.4688 096.1547 0003452 034.7810 325.3095 15.01122689932941
ISS
1 25544U 98067A 10357.88699256 .00020709 00000-0 15829-3 0 5137
2 25544 051.6489 339.5126 0005277 066.0764 017.4680 15.72128206693316
CO-58
1 28895U 05043F 10357.69177789 .00000263 00000-0 64164-4 0 7583
2 28895 097.9906 235.6049 0018774 053.1957 307.1022 14.59984075274639
FALCON
1 30776U 07006E 10356.96344337 .00000916 00000-0 67939-4 0 09994
2 30776 035.4346 337.9102 0001456 350.0105 010.0589 15.04024407208498
MAST
1 31126U 07012K 10357.65459746 .00000115 00000-0 36274-4 0 427
2 31126 097.9144 029.6349 0094870 357.6384 002.4378 14.53656922195581
CAPE1
1 31130U 07012P 10357.54393651 .00000125 00000-0 39362-4 0 626
2 31130 097.9170 026.5807 0102797 007.3489 352.9188 14.52269481195146
COMPASS
1 32787U 08021E 10357.22084852 .00000691 00000-0 93425-4 0 8627
2 32787 097.8720 059.1577 0016431 033.1249 327.0981 14.82088606143497
AAUSAT2
1 32788U 08021F 10356.12476212 .00000492 00000-0 68180-4 0 08530
2 32788 097.8736 058.2518 0016040 038.1485 322.0887 14.82244396143347
DO-64
1 32789U 08021G 10356.85118173 .00000489 00000-0 67432-4 0 08715
2 32789 097.8821 059.6792 0015962 034.2843 325.9375 14.82504825143451
CO-66
1 32791U 08021J 10355.65168626 .00000219 00000-0 34335-4 0 08552
2 32791 097.8745 057.5995 0016808 037.0437 323.1910 14.81835138143213
RS-30
1 32953U 08025A 10357.76197650 .00000010 00000-0 00000 0 0 3257
2 32953 082.5017 271.7905 0020074 049.6696 310.6132 12.43010009117297
TACSAT-3
1 35001U 09028A 10356.92510161 .00005250 00000-0 11605-3 0 04799
2 35001 040.4553 158.6029 0023283 335.5216 024.4493 15.44124914089790
PHARMSAT
1 35002U 09028B 10356.82844030 .00005302 00000-0 11582-3 0 4303
2 35002 040.4690 156.7120 0025668 337.8956 022.0752 15.44404603 89809
HAWKSAT1
1 35003U 09028C 10357.57449773 .00014793 00000-0 25573-3 0 4693
2 35003 040.4586 139.5268 0023543 007.1879 352.9271 15.50279094 90069
CP6
1 35004U 09028D 10357.54283534 .00018726 00000-0 30039-3 0 4718
2 35004 040.4594 136.5733 0022815 012.5750 347.5629 15.52265317 90086
AEROCUB3
1 35005U 09028E 10357.68378788 .00426724 74111-4 13122-2 0 5791
2 35005 040.4582 109.7681 0023306 041.0680 319.1898 15.90445506 90392
METEOR-M
1 35865U 09049A 10357.78573879 .00000176 00000-0 10000-3 0 9492
2 35865 098.7339 049.9728 0002115 159.1896 200.9323 14.21833724 65662
RS-38
1 35869U 09049E 10357.80658153 .00000177 00000-0 10000-3 0 9613
2 35869 098.7319 050.0339 0004560 167.4559 192.6686 14.21996445 65679
/EX
More information about the Keps
mailing list